TimeCDT,TemperatureF,Dew PointF,Humidity,Sea Level PressureIn,VisibilityMPH,Wind Direction,Wind SpeedMPH,Gust SpeedMPH,PrecipitationIn,Events,Conditions,WindDirDegrees,DateUTC
12:15 AM,30.2,26.6,86,29.85,8.0,North,27.6,36.8,0.00,,Overcast,350,2013-03-10 06:15:00
12:53 AM,30.9,27.0,85,29.91,4.0,North,26.5,36.8,0.00,Snow,Light Snow,350,2013-03-10 06:53:00
1:19 AM,30.2,26.6,86,29.86,2.5,North,23.0,38.0,0.00,Snow,Light Snow,350,2013-03-10 07:19:00
1:31 AM,30.2,28.4,93,29.86,1.8,NNW,26.5,33.4,0.00,Snow,Light Snow,340,2013-03-10 07:31:00
1:53 AM,30.0,28.0,92,29.94,1.2,North,19.6,31.1,0.00,Snow,Light Snow,350,2013-03-10 07:53:00
3:17 AM,30.2,26.6,86,29.89,2.0,NNW,21.9,32.2,0.00,Snow,Light Snow,340,2013-03-10 08:17:00
3:24 AM,28.4,26.6,93,29.89,1.8,NNW,28.8,35.7,0.00,Snow,Light Snow,340,2013-03-10 08:24:00
3:32 AM,28.4,24.8,86,29.90,2.0,NNW,26.5,35.7,0.00,Snow,Light Snow,340,2013-03-10 08:32:00
3:45 AM,26.6,23.0,86,29.90,2.0,North,29.9,40.3,0.00,Snow,Light Snow,350,2013-03-10 08:45:00
3:53 AM,27.0,21.9,81,29.98,3.0,North,26.5,38.0,0.00,Snow,Light Snow,350,2013-03-10 08:53:00
4:34 AM,26.6,21.2,80,29.90,2.5,NNW,29.9,41.4,0.00,Snow,Light Snow,340,2013-03-10 09:34:00
4:41 AM,24.8,21.2,86,29.91,3.0,NNW,32.2,39.1,0.00,Snow,Light Snow,340,2013-03-10 09:41:00
4:53 AM,25.0,19.9,81,29.99,5.0,NNW,29.9,39.1,0.00,Snow,Light Snow,340,2013-03-10 09:53:00
5:00 AM,24.8,19.4,80,29.92,5.0,North,33.4,41.4,0.00,,Overcast,350,2013-03-10 10:00:00
5:53 AM,23.0,17.1,78,30.00,10.0,North,33.4,44.9,0.00,,Overcast,350,2013-03-10 10:53:00
6:53 AM,21.2,15.8,80,29.95,10.0,NNW,31.1,40.3,N/A,,Overcast,340,2013-03-10 11:53:00
7:34 AM,19.4,14.0,80,29.97,9.0,North,29.9,44.9,N/A,,Overcast,350,2013-03-10 12:34:00
7:53 AM,19.9,15.1,81,30.06,10.0,NNW,26.5,35.7,N/A,,Overcast,340,2013-03-10 12:53:00
8:29 AM,19.4,14.0,80,30.01,7.0,NNW,24.2,33.4,N/A,,Overcast,340,2013-03-10 13:29:00
8:51 AM,19.4,14.0,80,30.01,7.0,NNW,25.3,38.0,0.00,,Overcast,340,2013-03-10 13:51:00
8:53 AM,19.0,14.0,81,30.10,7.0,NNW,27.6,38.0,0.00,,Overcast,340,2013-03-10 13:53:00
9:53 AM,19.0,12.9,77,30.12,8.0,North,28.8,39.1,0.00,,Overcast,350,2013-03-10 14:53:00
10:53 AM,19.4,10.4,68,30.05,10.0,NNW,27.6,39.1,N/A,,Overcast,340,2013-03-10 15:53:00
11:53 AM,21.0,12.9,71,30.13,9.0,NNW,29.9,40.3,0.00,Snow,Light Snow,340,2013-03-10 16:53:00
12:53 PM,21.0,14.0,74,30.12,8.0,NNW,33.4,42.6,0.00,Snow,Light Snow,340,2013-03-10 17:53:00
1:53 PM,24.1,16.0,71,30.12,10.0,NNW,31.1,42.6,0.00,,Overcast,340,2013-03-10 18:53:00
2:53 PM,23.0,16.0,74,30.11,9.0,NNW,28.8,38.0,0.00,Snow,Light Snow,340,2013-03-10 19:53:00
3:53 PM,24.1,15.1,69,30.10,10.0,NNW,25.3,38.0,0.00,,Mostly Cloudy,340,2013-03-10 20:53:00
4:53 PM,25.0,16.0,69,30.11,10.0,NNW,26.5,35.7,N/A,,Mostly Cloudy,340,2013-03-10 21:53:00
5:09 PM,26.6,17.6,69,30.02,10.0,NNW,26.5,38.0,N/A,,Scattered Clouds,330,2013-03-10 22:09:00
5:36 PM,24.8,15.8,69,30.02,10.0,NNW,25.3,36.8,N/A,,Mostly Cloudy,340,2013-03-10 22:36:00
5:53 PM,25.0,16.0,69,30.11,10.0,NNW,25.3,33.4,N/A,,Mostly Cloudy,330,2013-03-10 22:53:00
6:53 PM,24.1,15.1,69,30.12,10.0,NNW,20.7,29.9,N/A,,Overcast,340,2013-03-10 23:53:00
7:53 PM,21.9,15.1,75,30.12,10.0,NNW,20.7,26.5,N/A,,Mostly Cloudy,330,2013-03-11 00:53:00
8:06 PM,21.2,15.8,80,30.02,10.0,NNW,21.9,29.9,N/A,,Scattered Clouds,330,2013-03-11 01:06:00
8:53 PM,21.0,15.1,78,30.13,10.0,NNW,15.0,-,N/A,,Clear,330,2013-03-11 01:53:00
9:53 PM,19.9,14.0,78,30.14,10.0,NNW,13.8,-,N/A,,Clear,340,2013-03-11 02:53:00
10:53 PM,18.0,12.9,81,30.12,10.0,NNW,15.0,-,N/A,,Clear,340,2013-03-11 03:53:00
11:53 PM,17.1,12.0,81,30.11,10.0,NNW,19.6,-,N/A,,Clear,340,2013-03-11 04:53:00
12:53 AM,15.1,10.9,84,30.11,10.0,NNW,10.4,-,N/A,,Clear,330,2013-03-11 05:53:00